STARLINK-31922 (59846 NORAD) Tracking and Keplerian Element Data

This shows tracking and keplerian element data for the satellite.

Feedback or suggestion? Click here.




ElementValue
Catalog59846
NameSTARLINK-31922
Epoch Orbit370
Epoch Day160.16667824
Epoch Year2024
RAAN318.6269
Inclination43.0008
Eccentricity0.0001876
Argument of Perigee278.3814
Mean Anonmoly88.3152
Mean Motion15.6666658
Decay Rate-0.0174168
L11 59846U 24097M 24160.16667824 -.01741680 00000+0 -18375-1 0 9990
L22 59846 43.0008 318.6269 0001876 278.3814 88.3152 15.66666580 3705



Live tracking and technical data element details for STARLINK-31922 (NORAD 59846). STARLINK-31922 can be tracked NOW for your location showing map with azimuth and elevation plus other details from your city location.







IsCatalogInMostPopularTable: catalog: 59846, numindb: 7
Update: records affected: 1



GetName: 59846 STARLINK-31922

Hit Count: updated at: Tue, 16 Jul 2024 02:54:53 GMT